Worcester, MA

9:22 AM EDT on June 29, 2017 (GMT -0400)
Worcester Regional

Weather History for KORH - January, 2012

Change the Weather History Date:

Friday, January 20, 2012

  Actual Average Record
Temperature  
Mean Temperature 21 °F 24 °F  
Max Temperature 27 °F 31 °F 56 °F (1951)
Min Temperature 15 °F 16 °F -8 °F (1971)
Degree Days  
Heating Degree Days 44 41  
Month to date heating degree days 739 816  
Since 1 July heating degree days 2641 3320  
Cooling Degree Days 0 0  
Month to date cooling degree days 0 0  
Year to date cooling degree days 0 0  
Moisture  
Dew Point 15 °F    
Average Humidity 69    
Maximum Humidity 92    
Minimum Humidity 45    
Precipitation  
Precipitation 0.01 in 0.11 in 1.47 in (1978)
Month to date precipitation 1.63 2.23  
Year to date precipitation 1.63 2.23  
Snow  
Snow 1.00 in 0.60 in 18.40 in (1961)
Month to date snowfall 8.0 11.1  
Since 1 July snowfall 24.3 28.3  
Snow Depth -    
Sea Level Pressure  
Sea Level Pressure 30.03 in    
Wind  
Wind Speed 10 mph (West)    
Max Wind Speed 22 mph    
Max Gust Speed 29 mph    
Visibility 8 miles    
Events Snow    
T = Trace of Precipitation, MM = Missing Value Source: NWS Daily Summary

Daily Weather History Graph

Daily Weather History Graph

Search for Another Location

Airport or City:

Trip Planner

Search our weather history database for the weather conditions in past years. The results will help you decide how hot, cold, wet, or windy it might be!

Date:

Astronomy

Jan. 20, 2012 Rise Set
Actual Time 7:11 AM EST 4:45 PM EST
Civil Twilight 6:40 AM EST 5:16 PM EST
Nautical Twilight 6:06 AM EST 5:50 PM EST
Astronomical Twilight 5:32 AM EST 6:24 PM EST
Moon 4:47 AM EST (1/20) 2:13 PM EST (1/20)
Length of Visible Light 10h 35m
Length of Day
9h 34m
Waning Crescent, 8% of the Moon is Illuminated
Jan 20
Waning Crescent
Jan 23
New
Jan 30
First Quarter
Feb 7
Full
Feb 14
Last Quarter

Hourly Weather History & Observations

Time (EST) Temp. Windchill Dew Point Humidity Pressure Visibility Wind Dir Wind Speed Gust Speed Precip Events Conditions
12:20 AM 24.8 °F 19.1 °F 23.0 °F 93% 29.90 in 2.0 mi SW 4.6 mph - 0.00 in Snow Light Snow
12:27 AM 24.8 °F 19.1 °F 23.0 °F 93% 29.90 in 2.0 mi SW 4.6 mph - 0.00 in Snow Light Snow
12:37 AM 24.8 °F 19.1 °F 23.0 °F 93% 29.89 in 3.0 mi SSW 4.6 mph - 0.00 in Snow Light Snow
12:54 AM 25.0 °F 19.3 °F 23.0 °F 92% 29.94 in 3.0 mi SSW 4.6 mph - 0.00 in Snow Light Snow
1:03 AM 24.8 °F 20.5 °F 24.8 °F 100% 29.89 in 2.0 mi SSW 3.5 mph - 0.00 in Snow Light Snow
1:24 AM 24.8 °F 19.1 °F 24.8 °F 100% 29.88 in 2.0 mi SW 4.6 mph - 0.01 in Snow Light Snow
1:33 AM 24.8 °F 19.1 °F 24.8 °F 100% 29.88 in 3.0 mi SW 4.6 mph - 0.01 in Snow Light Snow
1:54 AM 25.0 °F 17.1 °F 23.0 °F 92% 29.92 in 6.0 mi SW 6.9 mph - 0.01 in Snow Light Snow
2:06 AM 24.8 °F 17.9 °F 24.8 °F 100% 29.87 in 10.0 mi WSW 5.8 mph - N/A   Overcast
2:54 AM 26.1 °F 17.6 °F 25.0 °F 96% 29.92 in 5.0 mi WSW 8.1 mph - 0.00 in Snow Light Snow
3:15 AM 26.6 °F 18.2 °F 24.8 °F 93% 29.87 in 10.0 mi SW 8.1 mph - 0.00 in   Overcast
3:54 AM 27.0 °F 18.7 °F 24.1 °F 89% 29.91 in 10.0 mi West 8.1 mph - 0.00 in   Overcast
4:54 AM 25.0 °F 16.3 °F 23.0 °F 92% 29.92 in 10.0 mi West 8.1 mph - N/A   Clear
5:54 AM 24.1 °F 16.0 °F 21.9 °F 91% 29.95 in 10.0 mi West 6.9 mph - N/A   Clear
6:31 AM 24.8 °F 13.4 °F 21.2 °F 86% 29.92 in 3.0 mi West 12.7 mph - 0.00 in Snow Light Snow
6:38 AM 24.8 °F 13.4 °F 21.2 °F 86% 29.93 in 2.5 mi WNW 12.7 mph - 0.00 in Snow Light Snow
6:45 AM 24.8 °F 12.4 °F 21.2 °F 86% 29.93 in 4.0 mi NW 15.0 mph 20.7 mph 0.00 in Snow Light Snow
6:54 AM 24.1 °F 13.1 °F 19.0 °F 81% 29.99 in 9.0 mi WNW 11.5 mph 20.7 mph 0.00 in   Overcast
7:06 AM 23.0 °F 9.6 °F 17.6 °F 80% 29.95 in 10.0 mi West 16.1 mph - N/A   Overcast
7:54 AM 21.0 °F 9.9 °F 15.1 °F 78% 30.04 in 10.0 mi West 10.4 mph - N/A   Clear
8:54 AM 21.9 °F 10.4 °F 12.9 °F 68% 30.07 in 10.0 mi WNW 11.5 mph 21.9 mph N/A   Clear
9:54 AM 21.9 °F 8.7 °F 10.9 °F 63% 30.09 in 10.0 mi NW 15.0 mph 25.3 mph N/A   Clear
10:54 AM 21.9 °F 8.2 °F 10.0 °F 60% 30.10 in 10.0 mi WNW 16.1 mph 19.6 mph N/A   Partly Cloudy
11:54 AM 21.9 °F 6.9 °F 8.1 °F 55% 30.09 in 10.0 mi WNW 19.6 mph 27.6 mph N/A   Clear
12:54 PM 23.0 °F 9.2 °F 6.8 °F 50% 30.05 in 10.0 mi WNW 17.3 mph 25.3 mph N/A   Clear
1:54 PM 24.1 °F 10.1 °F 8.1 °F 51% 30.11 in 10.0 mi WNW 18.4 mph 24.2 mph N/A   Clear
2:54 PM 24.1 °F 14.4 °F 7.0 °F 48% 30.14 in 10.0 mi West 9.2 mph - N/A   Clear
3:54 PM 23.0 °F 10.6 °F 5.0 °F 46% 30.14 in 10.0 mi WNW 13.8 mph - N/A   Clear
4:54 PM 21.9 °F 11.0 °F 3.9 °F 46% 30.18 in 10.0 mi West 10.4 mph - N/A   Clear
5:54 PM 19.9 °F 11.1 °F 3.0 °F 48% 30.21 in 10.0 mi West 6.9 mph - N/A   Clear
6:54 PM 18.0 °F 7.7 °F 1.9 °F 50% 30.24 in 10.0 mi West 8.1 mph - N/A   Clear
7:54 PM 17.1 °F 11.7 °F 1.9 °F 52% 30.26 in 10.0 mi West 3.5 mph - N/A   Clear
8:54 PM 17.1 °F 11.7 °F 3.0 °F 54% 30.26 in 10.0 mi West 3.5 mph - N/A   Clear
9:54 PM 17.1 °F 8.7 °F 3.9 °F 56% 30.25 in 10.0 mi WNW 5.8 mph - N/A   Clear
10:54 PM 17.1 °F 5.0 °F 3.0 °F 54% 30.26 in 10.0 mi WNW 10.4 mph - N/A   Clear
11:54 PM 16.0 °F 7.4 °F 1.9 °F 54% 30.27 in 10.0 mi WNW 5.8 mph - N/A   Clear